Total_Precipitation_Accumulation
0.40 0.35 0.22 0.13 0.11 0.15 0.20 0.23 0.27 0.26 0.29 0.28 0.24 0.07 0.02 0.02 0.02 0.05 0.03 0.01 0.02 0.02 0.02 0.01 0.00 0.00 0.00 0.00 0.00 0.00 0.00 0.00 0.00 0.00 0.00 0.00 0.00 0.00
0.35 0.27 0.24 0.21 0.22 0.23 0.29 0.35 0.38 0.41 0.35 0.39 0.42 0.24 0.09 0.04 0.02 0.02 0.01 0.00 0.01 0.01 0.01 0.00 0.00 0.00 0.00 0.00 0.00 0.00 0.00 0.00 0.00 0.00 0.00 0.00 0.00 0.00
0.15 0.16 0.22 0.29 0.29 0.33 0.37 0.37 0.43 0.50 0.38 0.49 0.61 0.45 0.23 0.11 0.04 0.02 0.01 0.02 0.02 0.01 0.01 0.00 0.00 0.00 0.00 0.00 0.00 0.00 0.00 0.00 0.00 0.00 0.00 0.00 0.00 0.00
0.09 0.12 0.17 0.21 0.27 0.34 0.38 0.39 0.42 0.51 0.45 0.51 0.72 0.71 0.49 0.20 0.08 0.03 0.01 0.01 0.01 0.01 0.00 0.00 0.00 0.00 0.00 0.00 0.00 0.00 0.00 0.00 0.00 0.00 0.00 0.00 0.00 0.00
0.06 0.07 0.08 0.14 0.20 0.26 0.33 0.39 0.43 0.60 0.52 0.57 0.76 0.74 0.55 0.34 0.21 0.11 0.05 0.06 0.02 0.03 0.02 0.00 0.00 0.00 0.01 0.01 0.00 0.00 0.00 0.00 0.00 0.00 0.00 0.00 0.00 0.00
0.04 0.04 0.05 0.08 0.15 0.22 0.30 0.33 0.35 0.40 0.41 0.49 0.65 0.68 0.60 0.44 0.38 0.26 0.17 0.12 0.09 0.07 0.09 0.04 0.02 0.01 0.01 0.02 0.01 0.00 0.00 0.00 0.00 0.00 0.00 0.00 0.00 0.00
0.08 0.05 0.05 0.07 0.08 0.10 0.16 0.23 0.27 0.38 0.41 0.44 0.53 0.66 0.63 0.47 0.39 0.36 0.30 0.24 0.22 0.19 0.24 0.15 0.10 0.08 0.04 0.03 0.02 0.01 0.01 0.01 0.01 0.00 0.00 0.00 0.00 0.00
0.06 0.04 0.03 0.05 0.09 0.12 0.14 0.15 0.15 0.22 0.33 0.43 0.48 0.49 0.46 0.42 0.40 0.38 0.37 0.35 0.33 0.26 0.33 0.34 0.33 0.29 0.20 0.11 0.07 0.06 0.06 0.04 0.03 0.02 0.01 0.00 0.00 0.00
0.02 0.02 0.01 0.03 0.06 0.09 0.10 0.08 0.08 0.09 0.15 0.27 0.32 0.37 0.41 0.37 0.39 0.43 0.46 0.47 0.43 0.31 0.35 0.46 0.52 0.60 0.34 0.30 0.29 0.21 0.14 0.09 0.07 0.06 0.04 0.02 0.02 0.01
0.00 0.00 0.00 0.00 0.00 0.01 0.06 0.07 0.02 0.01 0.02 0.05 0.08 0.16 0.44 0.55 0.45 0.43 0.44 0.42 0.41 0.39 0.39 0.51 0.54 0.71 0.61 0.40 0.30 0.20 0.15 0.10 0.08 0.08 0.08 0.06 0.04 0.03
0.00 0.00 0.00 0.00 0.00 0.00 0.02 0.03 0.02 0.00 0.00 0.00 0.01 0.03 0.11 0.28 0.42 0.44 0.43 0.46 0.57 0.59 0.50 0.55 0.56 0.66 0.81 0.69 0.37 0.17 0.09 0.06 0.05 0.05 0.06 0.05 0.04 0.03
0.00 0.00 0.00 0.00 0.00 0.00 0.00 0.01 0.01 0.00 0.00 0.00 0.01 0.01 0.01 0.01 0.03 0.08 0.13 0.22 0.34 0.45 0.42 0.49 0.63 0.73 0.89 0.95 0.64 0.29 0.12 0.05 0.02 0.01 0.02 0.02 0.04 0.04
0.00 0.00 0.00 0.00 0.00 0.00 0.00 0.00 0.00 0.00 0.00 0.00 0.01 0.01 0.03 0.02 0.01 0.01 0.03 0.06 0.12 0.17 0.18 0.23 0.36 0.49 0.67 0.78 0.60 0.32 0.15 0.08 0.04 0.02 0.01 0.01 0.02 0.04
0.00 0.00 0.00 0.00 0.00 0.00 0.00 0.00 0.00 0.00 0.00 0.00 0.00 0.00 0.00 0.00 0.01 0.01 0.01 0.02 0.03 0.05 0.07 0.13 0.20 0.19 0.24 0.35 0.34 0.21 0.10 0.06 0.05 0.06 0.03 0.01 0.01 0.03
0.00 0.00 0.00 0.00 0.00 0.00 0.00 0.00 0.00 0.00 0.00 0.00 0.00 0.00 0.00 0.00 0.00 0.01 0.00 0.00 0.00 0.00 0.01 0.03 0.07 0.08 0.09 0.12 0.14 0.11 0.05 0.02 0.02 0.02 0.03 0.02 0.02 0.03
0.00 0.00 0.00 0.00 0.00 0.00 0.00 0.00 0.00 0.00 0.00 0.00 0.00 0.00 0.00 0.00 0.00 0.00 0.00 0.01 0.01 0.00 0.00 0.00 0.01 0.02 0.02 0.02 0.02 0.02 0.01 0.01 0.00 0.00 0.01 0.02 0.03 0.04
0.00 0.01 0.01 0.01 0.01 0.00 0.00 0.00 0.00 0.00 0.00 0.00 0.00 0.00 0.00 0.00 0.00 0.00 0.00 0.00 0.00 0.00 0.00 0.00 0.00 0.00 0.00 0.00 0.00 0.00 0.00 0.00 0.00 0.00 0.01 0.02 0.02 0.02
0.00 0.01 0.01 0.01 0.00 0.00 0.00 0.00 0.00 0.00 0.00 0.00 0.00 0.00 0.00 0.00 0.00 0.00 0.00 0.00 0.00 0.00 0.00 0.00 0.00 0.00 0.00 0.00 0.00 0.00 0.00 0.00 0.00 0.00 0.00 0.01 0.00 0.00
0.00 0.00 0.00 0.00 0.00 0.00 0.00 0.00 0.00 0.00 0.00 0.00 0.00 0.00 0.00 0.00 0.00 0.00 0.00 0.00 0.00 0.00 0.00 0.00 0.00 0.00 0.00 0.01 0.00 0.00 0.00 0.00 0.00 0.00 0.00 0.00 0.00 0.00
0.00 0.00 0.00 0.00 0.00 0.00 0.00 0.00 0.00 0.00 0.00 0.00 0.00 0.00 0.00 0.00 0.00 0.00 0.00 0.01 0.01 0.01 0.00 0.00 0.00 0.00 0.00 0.01 0.00 0.00 0.00 0.00 0.00 0.00 0.00 0.00 0.00 0.00
0.00 0.00 0.00 0.00 0.00 0.00 0.00 0.00 0.00 0.00 0.00 0.00 0.00 0.00 0.00 0.00 0.00 0.00 0.00 0.00 0.01 0.01 0.01 0.01 0.01 0.01 0.00 0.01 0.01 0.00 0.00 0.00 0.00 0.00 0.00 0.00 0.00 0.00
0.00 0.00 0.00 0.00 0.00 0.00 0.00 0.00 0.00 0.00 0.00 0.00 0.00 0.00 0.00 0.00 0.00 0.00 0.00 0.00 0.00 0.00 0.01 0.01 0.02 0.01 0.01 0.01 0.02 0.01 0.00 0.00 0.00 0.00 0.00 0.00 0.00 0.00
0.00 0.00 0.00 0.00 0.00 0.00 0.00 0.00 0.00 0.00 0.00 0.00 0.00 0.00 0.00 0.00 0.00 0.01 0.01 0.01 0.01 0.01 0.02 0.02 0.03 0.05 0.04 0.02 0.02 0.02 0.01 0.00 0.00 0.00 0.00 0.00 0.00 0.00